Regional Weather Roundup
Issued by NWS

Home | Current Version | Previous Version | Text Only | Print | Product List | Glossary Off
Versions: 1 2 3 4 5 6 7 8 9 10 11 12 13 14 15 16 17 18 19 20 21 22 23 24 25 26 27 28 29 30 31 32 33 34 35 36 37 38 39 40 41 42 43 44 45 46 47 48 49 50

000
ASUS43 KOAX 180110
RWRNE

WEATHER ROUNDUP FOR NEBRASKA
NATIONAL WEATHER SERVICE OMAHA NE
800 PM CDT THU APR 17 2014

NOTES: SATELLITE DATA IS BEING USED TO AUGMENT CLOUD COVER ABOVE
       12000 FEET.
       "FAIR" INDICATES FEW OR NO CLOUDS BELOW 12,000 FEET WITH NO
       SIGNIFICANT WEATHER AND/OR OBSTRUCTIONS TO VISIBILITY.

  * THESE STATIONS DO NOT REPORT WEATHER SUCH AS RAIN...SNOW OR FOG.

NEZ001>004-019>022-054>056-180200-
NEBRASKA PANHANDLE

CITY           SKY/WX    TMP DP  RH WIND       PRES   REMARKS
SCOTTSBLUFF    CLEAR     57  34  41 SE18      29.96F
ALLIANCE       CLEAR     52  35  52 SE14      29.99F
CHADRON        CLEAR     52  37  56 SE16      29.98S
KIMBALL        CLEAR     56  29  36 SE9       29.97F
SIDNEY         CLEAR     59  32  36 SE16      29.99F
$$

NEZ057>060-069>072-079>082-180200-
SOUTHWEST NEBRASKA

CITY           SKY/WX    TMP DP  RH WIND       PRES   REMARKS
NORTH PLATTE   CLEAR     51  30  44 S13       30.11F
IMPERIAL       CLEAR     53  36  52 S21       30.08F
LEXINGTON      PTCLDY    50  34  54 S9        30.17F
MCCOOK         MOCLDY    54  33  45 SE12      30.14F
OGALLALA       CLEAR     54  36  49 S13G20    30.06F
$$

NEZ005>010-023>029-035>040-094-180200-
NORTH CENTRAL NEBRASKA

CITY           SKY/WX    TMP DP  RH WIND       PRES   REMARKS
VALENTINE      PTCLDY    53  27  36 S10       30.09F
AINSWORTH      CLEAR     50  26  40 SE9       30.12S
BROKEN BOW     CLEAR     48  29  47 S12       30.16S
O`NEILL        PTCLDY    49  19  30 S9        30.18S
ORD            CLEAR     50  25  37 SE9       30.17F
THEDFORD       MOCLDY    53  33  45 S12       30.11F
$$

NEZ041-046>049-061>064-073>077-083>087-180200-
SOUTH CENTRAL NEBRASKA

CITY           SKY/WX    TMP DP  RH WIND       PRES   REMARKS
GRAND ISLAND   CLEAR     51  26  37 S6        30.21S
AURORA         CLEAR     52  25  35 SE5       30.20F
HASTINGS       CLEAR     53  25  33 S6        30.20S
HEBRON         CLEAR     50  26  38 SE6       30.23R
HOLDREGE       CLEAR     50  31  47 S8        30.19S
KEARNEY *      CLEAR     48  27  43 S8        30.19S
YORK           CLEAR     50  25  37 SE5       30.22S
$$

NEZ011>018-030>034-042>045-180200-
NORTHEAST NEBRASKA

CITY           SKY/WX    TMP DP  RH WIND       PRES   REMARKS
NORFOLK        CLOUDY    51  22  31 SE6       30.21F
ALBION         PTCLDY    47  24  41 SE3       30.20F
BLAIR          CLEAR     51  21  30 CALM      30.23S
COLUMBUS *     PTCLDY    48  23  37 CALM      30.23S
FREMONT        PTCLDY    51  22  32 SE5       30.24S
TEKAMAH        PTCLDY    53  20  27 CALM      30.24S
$$

NEZ050>053-065>068-078-088>093-180200-
SOUTHEAST NEBRASKA

CITY           SKY/WX    TMP DP  RH WIND       PRES   REMARKS
LINCOLN        CLEAR     51  24  34 E5        30.24S
OMAHA EPPLEY   PTCLDY    53  24  32 CALM      30.24S
BEATRICE       CLEAR     53  26  35 CALM      30.23S
FALLS CITY     CLEAR     51  29  42 SE5       30.25R
NEBRASKA CITY  CLEAR     51  27  39 CALM      30.25R
PLATTSMOUTH    CLEAR     52  22  30 CALM      30.24S
$$

NEZ044-045-051>053-067-180200-
OMAHA AREA

CITY           SKY/WX    TMP DP  RH WIND       PRES   REMARKS
OMAHA EPPLEY   PTCLDY    53  24  32 CALM      30.24S
BLAIR          CLEAR     51  21  30 CALM      30.23S
FREMONT        PTCLDY    51  22  32 SE5       30.24S
MILLARD        CLEAR     52  23  32 CALM      30.24R
OFFUTT AFB     CLEAR     49  26  40 CALM      30.24S
PLATTSMOUTH    CLEAR     52  22  30 CALM      30.24S
WAHOO          FAIR      49  20  32 SE5       30.24R
$$



USA.gov is the U.S. government's official web portal to all federal, state and local government web resources and services.